TimeMST,TemperatureF,Dew PointF,Humidity,Sea Level PressureIn,VisibilityMPH,Wind Direction,Wind SpeedMPH,Gust SpeedMPH,PrecipitationIn,Events,Conditions,WindDirDegrees,DateUTC
12:53 AM,21.9,12.0,66,30.09,10.0,Calm,Calm,-,N/A,,Clear,0,2013-03-06 07:53:00
1:53 AM,23.0,10.9,60,30.07,10.0,Calm,Calm,-,N/A,,Clear,0,2013-03-06 08:53:00
2:53 AM,21.9,12.9,68,30.05,10.0,Calm,Calm,-,N/A,,Clear,0,2013-03-06 09:53:00
3:53 AM,21.9,12.0,66,30.04,10.0,Calm,Calm,-,N/A,,Clear,0,2013-03-06 10:53:00
4:53 AM,21.0,12.0,68,30.05,10.0,Calm,Calm,-,N/A,,Clear,0,2013-03-06 11:53:00
5:53 AM,18.0,10.9,74,30.08,10.0,Calm,Calm,-,N/A,,Clear,0,2013-03-06 12:53:00
6:53 AM,18.0,10.9,74,30.10,10.0,Calm,Calm,-,N/A,,Clear,0,2013-03-06 13:53:00
7:53 AM,25.0,14.0,63,30.11,10.0,Calm,Calm,-,N/A,,Clear,0,2013-03-06 14:53:00
8:53 AM,37.9,17.1,43,30.08,10.0,Calm,Calm,-,N/A,,Clear,0,2013-03-06 15:53:00
9:53 AM,48.0,19.9,33,30.05,10.0,SW,4.6,-,N/A,,Clear,230,2013-03-06 16:53:00
10:53 AM,55.0,16.0,22,30.01,10.0,SSW,18.4,26.5,N/A,,Clear,210,2013-03-06 17:53:00
11:53 AM,57.0,12.0,17,29.99,10.0,SSW,17.3,24.2,N/A,,Clear,210,2013-03-06 18:53:00
12:53 PM,57.0,10.9,16,29.98,10.0,WSW,9.2,24.2,N/A,,Clear,250,2013-03-06 19:53:00
1:53 PM,59.0,7.0,13,29.93,10.0,SSW,15.0,-,N/A,,Clear,210,2013-03-06 20:53:00
2:53 PM,59.0,5.0,12,29.92,10.0,SW,18.4,25.3,N/A,,Clear,230,2013-03-06 21:53:00
3:53 PM,60.1,9.0,13,29.91,10.0,SSW,12.7,23.0,N/A,,Clear,210,2013-03-06 22:53:00
4:53 PM,59.0,7.0,13,29.91,10.0,SW,18.4,27.6,N/A,,Clear,230,2013-03-06 23:53:00
5:53 PM,55.0,8.1,15,29.92,10.0,SW,11.5,19.6,N/A,,Clear,220,2013-03-07 00:53:00
6:53 PM,46.0,9.0,22,29.97,10.0,SW,9.2,-,N/A,,Clear,220,2013-03-07 01:53:00
7:53 PM,44.1,9.0,24,29.97,10.0,SSW,3.5,-,N/A,,Clear,200,2013-03-07 02:53:00
8:53 PM,37.9,10.0,32,29.96,10.0,SSW,6.9,-,N/A,,Clear,200,2013-03-07 03:53:00
9:53 PM,33.1,10.0,38,29.94,10.0,Calm,Calm,-,N/A,,Clear,0,2013-03-07 04:53:00
10:53 PM,30.9,10.0,42,29.92,10.0,Calm,Calm,-,N/A,,Clear,0,2013-03-07 05:53:00
11:53 PM,30.9,12.0,46,29.91,10.0,SSW,9.2,-,N/A,,Clear,200,2013-03-07 06:53:00